OneWeb SL0131

operational
NORAD ID: 47270 Int'l Des: 2020-100 Owner: ONEWEB Country: UK Constellation: oneweb
LEOCIRCULARPOLARONEWEB_TYPE

Über OneWeb SL0131

Beschreibung wird geladen...

Live-Position

3D-Globus wird geladen...

Nächste Überflüge

Höhenverlauf

Altitude vs Time

uPlot chart will show altitude changes over time

Zweizeiliger Elementsatz

1 47270U 20100N 25304.63739388 .00000248 00000-0 65439-3 0 9998
2 47270 87.8971 36.0879 0001648 107.9446 252.1862 13.12444020234595
Epoch: 31. Okt. 2025 • Age: 8 hours

Aktueller Status

Höhe 1215.6 km
Geschwindigkeit 7.25 km/s
Subsatellitenpunkt 21.36°N, 176.64°W
Startdatum 18. Dez. 2020
Alter 4.8 years
Typ internet

Technische Details

Klassifizierung Payload
Masse 148.00 kg
Trockenmasse 140.00 kg
Gesamtmasse 148.00 kg
Länge 1.30 m
Durchmesser 1.00 m
Spannweite 5.00 m
Form Trapezoid+2 pan
Hersteller ONEWUS
Bus-Typ ARROW
Phasenstatus In Orbit
Besitzer/Staat ONEWEB/UK

Große Konstellationen

Loading constellations...